STARLINK-35758, 66229

Orbit data source: Space-Track

STARLINK-35758, 66229 is a payload satellite owned by SpaceX/Seattle (US) in LEO that was launched on Tue, 28 Oct 2025 UTC via an FALCON 9 launch vehicle from the Air Force Western Test Range (AFWTR). Payload-class satellites include a variety of spacecraft equipped with specific instruments for various scientific and technological missions. These include communications satellites like Starlink; space stations such as the ISS; scientific satellites like the Hubble; Earth observation satellites from companies like Planet Labs, Umbra, and HawkEye 360; GPS; miniature CubeSats for education and research; and military/defense satellites.

Loading next visibility...
Identifier
66229, 2025-244Z
Orbit
LEO
Country
Flag of USUS
Related business
Manufacturer
SpaceX/Seattle
Mission
Operational Commercial Communications
Bus & Motor
STARLINK V2MO, Unknown motor
Mass
575 kg wet, ~530 kg dry
Launch date (UTC)
2025-10-28 (8 months ago)
Launch vehicle
FALCON 9
Launch site
Air Force Western Test Range (AFWTR)
Object type
Payload
Rocket body
Debris
Shape & HBR
Box + 2 Pan, 17.7 m
Radar Cross Section
36.964 m², Large (>1 m²)

Expand to show TLE details & history
Last TLE update: 2 days ago

TLE from 2 days ago
0 STARLINK-35758
1 66229U 25244Z   26170.27943690  .00017385  00000-0  52451-3 0  9992
2 66229  53.1592 117.3056 0001417 101.9209 258.1952 15.34398845 37226
Epoch: 2026-06-19T06:42Z
TLE epoch observation values (Epoch: 2026-06-19T06:42:23.348Z)
Latitude
-0.00005°
Longitude
109.19759°
Altitude
463.806 km
Speed
7.636 km/s
True Right ascension
07h 49m 13s
True Declination
0° 00' 00"
Sunlit
Object was in daylight at epoch
Visualization orbit readout
Latitude
Unknown
Longitude
Unknown
Altitude
Unknown
Speed
Unknown
Apparent Right ascension
Unknown
Apparent Declination
Unknown
Sunlit
N/A
Visualization observer readout
Local Sidereal Time
07:16:56
Azimuth
Unknown
Elevation
Unknown
Doppler factor
Unknown
Orbital elements
Apogee altitude
463.933 km
Perigee altitude
461.994 km
Semi-major axis
6,841.101 km
Eccentricity
0.00014
Inclination
53.1592°
RAAN
117.3056°
Arg. of periapsis
101.9209°
True anomaly
258.17931°
Mean anomaly
258.1952°
Eccentric anomaly
258.18725°
Mean motion
3.83578 °/min
Orbital period
93.85 mins
BSTAR
0.00052451
Loading maneuver chart data...
Computing Atmospheric mass density...
Loading historical data...
Loading historical data...
Loading historical data...
Loading historical data...
Loading historical data...
Loading historical data...
Loading historical data...

Documentation

Showing up to 5 results
|